TimeCDT,TemperatureF,Dew PointF,Humidity,Sea Level PressureIn,VisibilityMPH,Wind Direction,Wind SpeedMPH,Gust SpeedMPH,PrecipitationIn,Events,Conditions,WindDirDegrees,DateUTC
12:53 AM,48.0,43.0,83,29.68,10.0,WNW,11.5,-,N/A,,Clear,290,2011-10-14 05:53:00
1:53 AM,46.9,43.0,86,29.68,10.0,WNW,9.2,-,N/A,,Clear,290,2011-10-14 06:53:00
2:53 AM,46.0,43.0,89,29.69,10.0,WNW,10.4,-,N/A,,Partly Cloudy,290,2011-10-14 07:53:00
3:53 AM,46.9,44.1,90,29.68,10.0,WNW,11.5,-,N/A,,Scattered Clouds,300,2011-10-14 08:53:00
4:41 AM,46.4,44.6,93,29.66,9.0,NW,12.7,-,N/A,,Mostly Cloudy,310,2011-10-14 09:41:00
4:53 AM,46.0,43.0,89,29.69,10.0,NW,12.7,-,N/A,,Scattered Clouds,310,2011-10-14 09:53:00
5:53 AM,46.0,41.0,83,29.70,10.0,NW,18.4,24.2,N/A,,Partly Cloudy,310,2011-10-14 10:53:00
6:53 AM,44.1,37.9,79,29.72,10.0,NW,18.4,25.3,N/A,,Partly Cloudy,310,2011-10-14 11:53:00
7:53 AM,42.8,37.4,81,29.69,10.0,NW,10.4,-,N/A,,Clear,310,2011-10-14 12:53:00
8:25 AM,42.8,37.4,81,29.70,10.0,NW,12.7,23.0,N/A,,Mostly Cloudy,320,2011-10-14 13:25:00
8:53 AM,43.0,36.0,76,29.75,10.0,NW,17.3,23.0,N/A,,Overcast,310,2011-10-14 13:53:00
9:44 AM,44.6,37.4,76,29.72,10.0,NW,17.3,-,N/A,,Scattered Clouds,310,2011-10-14 14:44:00
9:53 AM,46.0,37.0,71,29.76,10.0,NW,20.7,27.6,N/A,,Scattered Clouds,310,2011-10-14 14:53:00
10:00 AM,46.4,37.4,71,29.72,10.0,NW,23.0,27.6,N/A,,Mostly Cloudy,310,2011-10-14 15:00:00
10:53 AM,48.0,36.0,63,29.78,10.0,NW,24.2,32.2,N/A,,Mostly Cloudy,310,2011-10-14 15:53:00
11:08 AM,48.2,35.6,62,29.73,10.0,NW,21.9,33.4,N/A,,Mostly Cloudy,310,2011-10-14 16:08:00
11:53 AM,51.1,37.0,59,29.77,10.0,WNW,23.0,32.2,N/A,,Mostly Cloudy,300,2011-10-14 16:53:00
12:53 PM,53.1,36.0,52,29.77,10.0,NW,24.2,31.1,N/A,,Mostly Cloudy,320,2011-10-14 17:53:00
1:53 PM,53.6,35.6,51,29.73,10.0,NW,24.2,35.7,N/A,,Overcast,310,2011-10-14 18:53:00
2:53 PM,53.1,36.0,52,29.77,10.0,WNW,18.4,33.4,N/A,,Overcast,300,2011-10-14 19:53:00
3:53 PM,54.0,36.0,51,29.76,10.0,WNW,26.5,33.4,N/A,,Mostly Cloudy,300,2011-10-14 20:53:00
4:53 PM,55.9,37.9,51,29.77,10.0,WNW,21.9,26.5,N/A,,Scattered Clouds,300,2011-10-14 21:53:00
5:53 PM,54.0,39.9,59,29.78,10.0,WNW,20.7,34.5,N/A,,Mostly Cloudy,300,2011-10-14 22:53:00
6:53 PM,51.1,37.0,59,29.80,10.0,WNW,20.7,32.2,N/A,,Partly Cloudy,300,2011-10-14 23:53:00
7:53 PM,48.9,36.0,61,29.82,10.0,NW,16.1,-,N/A,,Clear,310,2011-10-15 00:53:00
8:53 PM,48.9,34.0,56,29.83,10.0,WNW,15.0,-,N/A,,Clear,300,2011-10-15 01:53:00
9:53 PM,48.0,35.1,61,29.83,10.0,WNW,13.8,-,N/A,,Clear,290,2011-10-15 02:53:00
10:53 PM,48.0,35.1,61,29.84,10.0,WNW,13.8,-,N/A,,Clear,290,2011-10-15 03:53:00
11:53 PM,46.4,37.4,71,29.80,10.0,West,11.5,-,N/A,,Clear,280,2011-10-15 04:53:00